Location: Monteux
(44.0348°N, 4.9972°E)
Time: 17:25:31
(UTC+00:00)

CZ-4B R/B - Pass Details

Date: 30 November 2020
Orbit: 389 x 457 km, 97.6° (Epoch: 23 January)

Event Time Altitude Azimuth Distance (km) Brightness Sun altitude
Exits shadow 17:39:59 16° 5° (N) 1,153 3.3 -16.9°
Maximum altitude 17:42:21 66° 284° (WNW) 449 1.5 -17.3°
Drops below altitude 10° 17:45:28 10° 202° (SSW) 1,479 4.5 -17.8°
Sets 17:47:29 0° 200° (SSW) 2,349 5.5 -18.2°
